Location: Amsterdam
(30.7274°N, 84.4357°W)
Time: 12:23:40
(UTC+00:00)

Courier 1B Rocket - Pass Details

Date: 11 February 2026
Orbit: 920 x 1201 km, 28.2° (Epoch: 17 March)

Event Time Altitude Azimuth Distance (km) Brightness Sun altitude
Rises 07:13:04 0° 274° (W) 3,876 - -65.0°
Reaches altitude 10° 07:15:47 10° 271° (W) 2,959 - -64.5°
Maximum altitude 07:22:59 60° 193° (SSW) 1,303 - -63.2°
Drops below altitude 10° 07:30:35 10° 116° (ESE) 3,109 - -61.8°
Sets 07:33:30 0° 112° (ESE) 4,084 - -61.3°
